Weather History for Blythe, CA

Change the Weather History Date:

Tuesday, September 10, 2013

  Actual Average Record
Temperature  
Mean Temperature 81 °F -  
Max Temperature 89 °F 101 °F 111 °F (1971)
Min Temperature 73 °F 75 °F 64 °F (1986)
Cooling Degree Days 16    
Growing Degree Days 31 (Base 50)    
Moisture  
Dew Point 68 °F    
Average Humidity 67    
Maximum Humidity 97    
Minimum Humidity 45    
Precipitation  
Precipitation 0.01 in - - ()
Sea Level Pressure  
Sea Level Pressure 29.78 in    
Wind  
Wind Speed 4 mph (East)    
Max Wind Speed 10 mph    
Max Gust Speed -    
Visibility 10 miles    
Events      
Averages and records for this station are not official NWS values.
T = Trace of Precipitation, MM = Missing Value Source: NWS Daily Summary

Daily Weather History Graph

Daily Weather History Graph

Search for Another Location

Airport:

Trip Planner

Search our weather history database for the weather conditions in past years. The results will help you decide how hot, cold, wet, or windy it might be!

Date:

Astronomy

Sep. 10, 2013 Rise Set
Actual Time 6:19 AM PDT 6:51 PM PDT
Civil Twilight 5:54 AM PDT 7:16 PM PDT
Nautical Twilight 5:24 AM PDT 7:46 PM PDT
Astronomical Twilight 4:54 AM PDT 8:16 PM PDT
Moon 11:31 AM PDT (9/10) 10:16 PM PDT (9/10)
Length of Visible Light 13h 22m
Length of Day
12h 32m
Waxing Crescent, 29% of the Moon is Illuminated
Sep 10
Waxing Crescent
Sep 12
First Quarter
Sep 19
Full
Sep 26
Last Quarter
Oct 4
New

Hourly Weather History & Observations

Time (PDT) Temp. Heat Index Dew Point Humidity Pressure Visibility Wind Dir Wind Speed Gust Speed Precip Events Conditions
12:52 AM 75.9 °F - 72.0 °F 87% 29.75 in 10.0 mi SSW 3.5 mph - 0.01 in   Partly Cloudy
1:52 AM 77.0 °F - 71.1 °F 82% 29.75 in 10.0 mi South 3.5 mph - N/A   Mostly Cloudy
2:52 AM 75.9 °F - 73.0 °F 91% 29.75 in 10.0 mi Calm Calm - N/A   Partly Cloudy
3:52 AM 75.9 °F - 71.1 °F 85% 29.73 in 10.0 mi SE 5.8 mph - N/A   Mostly Cloudy
4:52 AM 75.0 °F - 72.0 °F 90% 29.74 in 10.0 mi Calm Calm - 0.00 in   Clear
5:52 AM 73.9 °F - 73.0 °F 97% 29.76 in 10.0 mi NE 4.6 mph - N/A   Clear
6:52 AM 75.0 °F - 72.0 °F 90% 29.78 in 10.0 mi Calm Calm - N/A   Clear
7:52 AM 75.9 °F - 72.0 °F 87% 29.80 in 10.0 mi Calm Calm - N/A   Overcast
8:52 AM 78.1 °F - 71.1 °F 79% 29.82 in 10.0 mi Calm Calm - N/A   Mostly Cloudy
9:52 AM 80.1 °F 82.9 °F 69.1 °F 69% 29.81 in 10.0 mi Calm Calm - N/A   Scattered Clouds
10:52 AM 82.9 °F 85.4 °F 66.9 °F 58% 29.81 in 10.0 mi ENE 4.6 mph - N/A   Scattered Clouds
11:52 AM 86.0 °F 87.3 °F 64.0 °F 48% 29.81 in 10.0 mi North 10.4 mph - N/A   Partly Cloudy
12:52 PM 86.0 °F 87.3 °F 64.0 °F 48% 29.80 in 10.0 mi NNE 3.5 mph - N/A   Partly Cloudy
1:52 PM 86.0 °F 89.4 °F 68.0 °F 55% 29.78 in 10.0 mi East 8.1 mph - N/A   Scattered Clouds
2:52 PM 86.0 °F 89.4 °F 68.0 °F 55% 29.77 in 10.0 mi SSE 10.4 mph - N/A   Clear
3:52 PM 88.0 °F 90.7 °F 66.9 °F 49% 29.75 in 10.0 mi East 6.9 mph - N/A   Clear
4:52 PM 89.1 °F 91.0 °F 64.9 °F 45% 29.74 in 10.0 mi ESE 5.8 mph - N/A   Clear
5:52 PM 88.0 °F 89.6 °F 64.9 °F 46% 29.74 in 10.0 mi ESE 6.9 mph - N/A   Clear
6:52 PM 86.0 °F 87.6 °F 64.9 °F 49% 29.75 in 10.0 mi ESE 3.5 mph - N/A   Clear
7:52 PM 84.0 °F 86.3 °F 66.0 °F 55% 29.78 in 10.0 mi East 3.5 mph - N/A   Clear
8:52 PM 82.0 °F 84.1 °F 66.0 °F 58% 29.79 in 10.0 mi ENE 4.6 mph - N/A   Clear
9:52 PM 80.1 °F 82.3 °F 66.9 °F 64% 29.81 in 10.0 mi ENE 4.6 mph - N/A   Clear
10:52 PM 80.1 °F 82.3 °F 66.9 °F 64% 29.82 in 10.0 mi East 4.6 mph - N/A   Mostly Cloudy
11:52 PM 79.0 °F - 64.9 °F 62% 29.81 in 10.0 mi Calm Calm - N/A   Clear